Lid_Strength_Index
4 3 4 4 4 5 4 4 4 4 3 3 3 3 3 4 5 5 1 0 3 5 5 3 3 6 6 6 9 7 7 7 8 11 10 11 12 11 12 11 12 13 14 14 14 16 17 7 7 11 9 7 6 6
4 3 4 4 5 5 4 4 4 4 4 3 3 3 4 5 5 5 2 0 0 4 4 2 2 1 2 3 6 6 7 7 7 10 9 9 11 10 12 15 9 14 12 13 12 13 7 6 6 5 5 7 6 6
3 3 4 4 5 5 4 4 4 4 4 3 3 3 4 5 6 5 1 1 1 4 4 4 4 2 1 1 1 7 6 5 6 5 8 8 11 9 13 12 11 9 7 11 10 8 7 6 5 5 5 6 5 5
3 3 4 4 5 5 5 4 4 4 4 4 3 3 3 5 6 4 1 0 2 3 7 6 1 2 0 1 2 2 3 3 4 5 7 9 10 7 10 10 10 9 8 10 10 7 6 6 5 5 4 4 4 4
3 3 4 4 5 5 5 4 4 4 4 3 3 3 3 4 5 4 1 0 1 4 7 6 3 2 1 1 2 2 3 5 5 6 8 9 7 8 8 8 10 7 9 11 11 7 7 7 5 3 4 4 4 4
3 3 4 4 5 5 4 4 4 4 4 3 3 3 3 3 5 1 4 1 2 1 5 8 3 3 2 2 3 3 3 4 5 6 7 6 5 7 10 11 7 6 5 5 7 5 4 5 4 3 4 4 3 4
3 4 4 4 5 5 4 4 4 4 4 4 3 3 3 3 1 3 4 1 4 0 5 7 7 3 2 2 3 4 3 4 5 6 7 7 7 6 9 11 7 6 5 5 4 5 6 4 5 3 4 3 3 3
3 4 4 5 5 5 5 4 4 4 4 4 4 3 3 3 3 2 0 3 3 2 3 8 8 6 1 5 6 4 5 5 5 6 6 7 7 7 11 8 6 5 4 4 4 4 4 4 3 4 3 3 4 4
3 4 4 5 5 5 5 4 4 4 4 4 4 4 1 1 3 2 1 2 -1 3 7 6 9 10 3 5 5 5 5 8 5 8 7 7 9 11 8 7 6 5 6 5 4 3 4 4 4 4 4 4 4 4
3 4 4 5 5 5 5 4 4 4 4 4 1 2 4 2 1 -0 2 3 3 3 4 7 5 8 5 6 6 7 6 8 10 8 6 9 10 7 5 5 4 4 3 4 5 6 5 5 4 4 4 4 4 4
3 4 5 5 5 5 4 4 4 5 2 1 3 4 1 2 1 3 5 6 5 6 5 5 5 7 4 8 8 6 8 8 11 9 9 10 11 8 5 4 4 3 3 4 4 3 3 4 4 4 4 3 4 4
4 4 5 5 5 4 4 4 4 0 1 3 4 2 1 3 5 6 7 6 6 7 5 6 6 5 5 4 7 6 8 7 12 7 10 12 9 6 5 4 3 3 3 3 3 3 3 3 3 3 4 4 4 4
4 5 5 5 5 4 4 4 4 4 4 2 3 3 5 5 9 8 9 8 8 6 5 5 6 5 5 5 6 7 8 10 7 10 11 10 7 5 5 4 3 3 3 3 3 2 2 3 2 3 4 4 3 4
5 5 5 5 4 4 4 4 4 3 1 4 5 10 7 7 7 7 7 7 5 5 5 5 6 6 5 6 7 7 7 7 10 12 12 8 6 5 4 3 4 4 3 3 3 3 3 3 3 3 3 3 4 4
5 5 5 4 4 4 4 4 4 1 2 4 4 10 7 5 5 4 4 5 4 4 5 6 6 6 7 6 7 8 8 10 11 12 9 7 5 5 4 3 3 4 3 3 3 3 3 3 3 4 4 4 4 4
5 4 3 4 5 5 4 2 -0 0 2 3 4 6 5 6 6 5 5 5 4 4 4 5 6 8 7 7 8 8 9 12 10 8 6 5 5 4 4 3 3 3 3 3 3 3 2 3 4 4 3 4 4 5
5 2 4 5 5 5 3 -0 1 2 3 3 5 4 4 5 6 5 5 5 3 5 7 6 8 8 6 8 8 8 10 8 7 6 5 4 5 4 3 3 3 2 3 3 3 3 3 2 3 4 4 4 5 5
2 2 4 5 5 1 -0 0 2 3 5 4 5 5 4 4 5 4 4 3 4 5 5 7 5 7 8 9 10 7 6 5 5 5 4 4 3 3 3 3 2 2 3 3 3 2 3 4 5 5 5 5 6 6
4 5 5 5 5 3 2 2 2 5 5 4 3 3 4 3 3 3 3 3 3 3 4 5 6 8 8 7 7 6 5 5 5 5 4 3 3 3 2 2 2 3 3 3 3 3 3 4 4 4 5 6 7 6
6 5 5 5 3 2 3 3 1 4 5 4 3 4 4 4 3 3 3 3 4 4 5 6 7 6 6 5 4 4 4 4 4 5 5 4 3 3 3 3 3 3 3 2 2 4 4 4 4 4 5 6 6 7
3 2 4 1 0 1 2 3 3 4 4 4 3 3 4 3 4 4 4 3 5 5 6 5 5 4 3 3 3 3 3 3 4 4 4 4 3 3 3 2 2 3 3 3 4 4 5 5 4 5 5 6 6 6
1 4 1 0 3 2 3 1 3 3 4 4 4 4 5 5 5 4 3 5 5 5 4 4 4 3 3 3 3 2 2 2 2 3 5 5 3 4 3 3 3 3 4 3 3 3 4 4 4 4 5 5 5 5
4 3 2 2 5 8 8 2 4 3 5 5 4 5 5 5 4 2 5 4 4 3 3 3 2 2 3 2 1 2 2 2 3 3 3 2 2 2 2 2 2 3 3 2 2 3 3 5 6 5 4 5 5 6
6 4 5 5 6 9 4 5 4 5 4 5 6 6 5 5 4 5 6 5 4 3 3 3 2 3 3 3 3 3 2 2 2 2 2 2 3 3 2 2 2 2 2 2 2 2 2 3 6 5 5 5 5 6
8 9 7 12 5 6 7 7 6 6 7 6 6 6 5 4 6 6 6 5 4 4 3 3 3 3 4 3 3 2 1 2 3 3 2 2 2 2 2 2 2 1 1 2 2 2 2 3 4 5 5 5 5 5
13 6 9 6 6 6 7 7 7 6 6 6 6 4 4 6 7 7 6 5 4 3 3 3 3 3 3 3 3 3 2 1 2 3 2 1 2 3 3 3 3 2 1 1 2 2 3 3 4 4 5 5 8 7
10 6 4 3 4 4 5 4 4 5 6 7 5 5 6 8 7 5 4 3 3 2 2 2 2 2 3 2 2 1 1 1 1 2 1 1 1 1 1 3 3 2 1 1 1 2 2 3 4 4 5 5 5 5
5 5 6 4 4 3 6 5 6 6 5 4 4 6 7 7 7 4 3 1 1 1 1 1 1 1 2 1 1 1 1 1 1 1 1 1 1 1 0 0 0 4 2 1 1 1 1 2 3 3 4 5 5 4
6 4 4 6 5 5 5 5 5 4 3 4 6 6 6 4 2 2 2 1 1 1 2 2 2 1 1 1 1 1 1 1 2 4 4 4 3 2 0 1 1 1 1 1 8 5 2 2 2 3 3 4 4 4
6 4 6 5 6 6 4 3 4 3 2 2 3 3 3 3 2 1 1 1 2 2 2 1 1 2 2 2 2 2 1 1 1 2 4 4 3 1 1 1 1 1 1 1 1 2 10 6 7 4 5 5 5 4
4 4 5 5 5 4 3 2 2 2 2 3 2 4 4 3 2 1 1 1 1 1 2 2 2 1 2 2 2 2 3 1 0 0 1 1 1 1 1 1 0 1 1 1 1 2 2 5 4 4 4 4 4 5
4 5 5 6 5 3 2 3 4 4 4 4 4 3 3 4 5 3 1 1 1 2 5 2 2 2 1 1 1 1 7 1 0 0 0 1 1 0 0 1 1 1 1 2 2 2 2 2 3 3 3 3 3 3
5 5 5 5 5 5 4 4 5 5 5 5 5 4 4 4 5 2 0 -0 0 1 1 1 1 1 0 0 0 1 4 0 1 8 10 10 10 7 3 1 1 1 1 1 2 2 3 3 3 3 4 4 4 4